Regional Weather Roundup
Issued by NWS

Home | Current Version | Previous Version | Text Only | Print | Product List | Glossary Off
Versions: 1 2 3 4 5 6 7 8 9 10 11 12 13 14 15 16 17 18 19 20 21 22 23 24 25 26 27 28 29 30 31 32 33 34 35 36 37 38 39 40 41 42 43 44 45 46 47 48 49 50

939
ASUS43 KLOT 240603
RWRIL

ILLINOIS REGIONAL WEATHER ROUNDUP
NATIONAL WEATHER SERVICE CHICAGO/ROMEOVILLE IL
100 AM CDT TUE MAY 24 2016

NOTE: "FAIR" INDICATES FEW OR NO CLOUDS BELOW 12,000 FEET WITH NO
SIGNIFICANT WEATHER AND/OR OBSTRUCTIONS TO VISIBILITY.

* THESE STATIONS ARE NOT UNDER NWS QUALITY CONTROL. THEY ALSO MAY NOT
  REPORT WEATHER SUCH AS PRECIPITATION OR FOG.

ILZ001-002-007-009-015-016-024-240700-
NORTHWEST ILLINOIS

CITY           SKY/WX    TMP DP  RH WIND       PRES   REMARKS
MOLINE         CLOUDY    68  48  48 CALM      29.91R
6HR MIN TEMP:  62; 6HR MAX TEMP:  81;

STERLING*      PTCLDY    66  49  54 CALM      29.92R
$$

ILZ003-004-008-010-011-017-018-240700-
NORTH CENTRAL ILLINOIS

CITY           SKY/WX    TMP DP  RH WIND       PRES   REMARKS
ROCKFORD       CLOUDY    66  47  50 S3        29.94R
6HR MIN TEMP:  65; 6HR MAX TEMP:  82;

FREEPORT*      CLOUDY    64  47  53 SW8       29.93S
$$

ILZ005-006-012>014-019>023-240700-
NORTHEAST ILLINOIS

CITY           SKY/WX    TMP DP  RH WIND       PRES   REMARKS
CHICAGO-OHARE  PTCLDY    60  43  53 S6        29.94R
6HR MIN TEMP:  60; 6HR MAX TEMP:  77;

CHICAGO-MIDWAY PTCLDY    70  40  33 S8        29.95R
6HR MIN TEMP:  69; 6HR MAX TEMP:  79;

AURORA         PTCLDY    63  47  55 S8        29.94S
6HR MIN TEMP:  62; 6HR MAX TEMP:  78;

LANSING*       PTCLDY    60  41  49 S6        29.96S
WAUKEGAN       CLOUDY    53  46  77 CALM      29.93R
6HR MIN TEMP:  53; 6HR MAX TEMP:  68;

DUPAGE AIRPORT CLEAR     62  44  51 S6        29.94R
6HR MIN TEMP:  61; 6HR MAX TEMP:  76;

WHEELING       CLEAR     60  43  53 S3        29.95R
6HR MIN TEMP:  58; 6HR MAX TEMP:  77;

NORTHERLY ISL    N/A     69  38  32 S7          N/A
NORTHERLY ISL    N/A     69  38  32 S7          N/A
$$

LMZ740>746-240700-
SOUTHERN LAKE MICHIGAN

STATION/POSITION SKY/WX   TEMP    WIND        PRES    VSBY  WAVE
                          AIR SEA DIR/SP/G                  HT/PER
                          (F)     (DEG/KT/KT) (MB)    (MI)  (FT/S)
SOUTHERN BUOY              56 49  140/ 10/ 12 1013.6          0
WILMETTE HARBOR            57 55  170/  8/  8   N/A           1/ 2
HARRISON CRIB              68     180/ 13/ 13   N/A
BURNHAM HARBOR             68     190/  9/ 11   N/A
CALUMET HARBOR             69     180/  5/  9 1013.6R
BURNS HARBOR               70     160/  9/ 19 1014.9R
MICHIGAN CITY              69     140/ 11/ 13   N/A
MICHIGAN CITY 6N           63 57  170/  8/ 10   N/A           1
ST. JOSEPH                 63 58  140/  8/ 10   N/A           1
$$

ILZ025>027-034>036-040-047-049-050-058-095>099-240700-
WEST-CENTRAL ILLINOIS

CITY           SKY/WX    TMP DP  RH WIND       PRES   REMARKS
QUINCY         CLOUDY    65  53  65 SE5       29.94R
MACOMB*        PTCLDY    62  51  66 S6        29.96S
$$

ILZ028>032-037-038-041>044-048-051>054-059>061-240700-
CENTRAL ILLINOIS

CITY           SKY/WX    TMP DP  RH WIND       PRES   REMARKS
BLOOMINGTON    PTCLDY    64  51  62 S10       29.98R
DECATUR        PTCLDY    68  49  50 S9        29.98R
PEORIA         CLOUDY    65  50  58 S6        29.95R
6HR MIN TEMP:  64; 6HR MAX TEMP:  81;

SPRINGFIELD    CLEAR     66  52  60 CALM      29.96R
6HR MIN TEMP:  66; 6HR MAX TEMP:  82;

TAYLORVILLE    NOT AVBL
$$

ILZ033-039-045-046-055>057-062-063-240700-
EAST-CENTRAL ILLINOIS

CITY           SKY/WX    TMP DP  RH WIND       PRES   REMARKS
CHAMPAIGN      CLOUDY    64  45  49 S7        29.98R
MATTOON        CLOUDY    65  47  52 S7        29.98R
$$

ILZ079-100>102-240700-
SOUTHWEST ILLINOIS

CITY           SKY/WX    TMP DP  RH WIND       PRES   REMARKS
BELLEVILLE     PTCLDY    62  61  94 CALM      29.95R
CAHOKIA*       PTCLDY    63  55  75 CALM      29.95R
SPARTA*        CLOUDY    64  57  79 SE5       29.98R
$$

ILZ064>066-069>071-074>076-080>082-084>086-088>090-092>094-240700-
SOUTH-CENTRAL ILLINOIS

CITY           SKY/WX    TMP DP  RH WIND       PRES   REMARKS
CARBONDALE     PTCLDY    60  57  89 SW3       29.98R
6HR MIN TEMP:  60; 6HR MAX TEMP:  76;

MT. VERNON     CLEAR     57  52  82 CALM      29.98S
SALEM*         CLEAR     68  54  60 SE3       29.97S
$$

ILZ067-068-072-073-078-083-087-091-240700-
SOUTHEAST ILLINOIS

CITY           SKY/WX    TMP DP  RH WIND       PRES   REMARKS
LAWRENCEVILLE  CLOUDY    62  53  72 SE5       29.99S
FLORA*         PTCLDY    64  55  72 CALM      29.98F
HARRISBURG*    CLEAR     62  57  84 CALM      29.99S
ROBINSON*      PTCLDY    56  53  88 CALM      30.00S
$$

ABBREVIATIONS USED IN REMARKS
   TC - TEMPERATURE IN CELSIUS
  WCI - WIND CHILL INDEX
   HX - HEAT INDEX
  VSB - VISIBILITY
$$





USA.gov is the U.S. government's official web portal to all federal, state and local government web resources and services.